[[{"header":{"parameterUnit":"m.s-1","parameterCategory":1,"la1":30.2991,"la2":30.254,"lo1":-89.0895,"lo2":-89.0444,"dy":0.0017,"dx":0.0017,"nx":28,"ny":28,"refTime":"2024-02-01T09:00:00:Z","depth":0,"parameterNumber":2,"parameterNumberName":"U-component_of_WINDS"},"data":[0,0,0,0,0,0,0,0,0,0,0,0,0,0,0,0,0,0,0,0,0,0,0,0,0,0,0,0,0,0,0,0,0,0,0,0,0,0,0,0,0,0,0,0,0,0,0,0,0,0,0,0,0,0,0,0,0,0,0.2096,0.2097,0,0.2203,0.2204,0.2205,0.2253,0.2253,0.2252,0.2252,0.2366,0.2369,0.2372,0,0,0,0,0,0,0,0,0,0,0,0,0,0.1934,0.1936,0.2095,0.2097,0.2098,0.2203,0.2204,0.2206,0.2253,0.2253,0.2252,0.2252,0.2365,0.2368,0.2372,0,0,0,0,0,0,0,0,0,0,0,0,0,0.2019,0.1937,0.2095,0.2134,0.2139,0.2202,0.2204,0.2206,0.2253,0.2253,0.2252,0.2252,0.2363,0.2368,0.2373,0.2407,0,0,0.2387,0.2389,0,0,0,0,0,0,0,0,0.2014,0.2025,0.2127,0.2132,0.2137,0.2214,0.2189,0.2274,0.2253,0.221,0.2252,0.2252,0.2316,0.2324,0.2345,0.2412,0.2417,0.2388,0.2391,0.2393,0.2394,0,0,0,0,0,0,0,0.2008,0.202,0.2138,0.2128,0.2134,0.2147,0.2159,0.2205,0.2263,0.2213,0.2217,0.2229,0.2318,0.234,0.2348,0.2419,0.2388,0.2392,0.2395,0.2397,0.2519,0.2519,0,0,0,0,0,0,0.1995,0.2015,0.2135,0.2141,0.2073,0.215,0.2163,0.219,0.2262,0.2273,0.2229,0.2231,0.2332,0.2343,0.2352,0.2397,0.2393,0.2397,0.24,0.2518,0.2519,0.2519,0,0,0,0,0,0,0.1992,0.2005,0.213,0.2079,0.2096,0.2153,0.2182,0.2192,0.2214,0.2274,0.2285,0.2241,0.2333,0.2346,0.2393,0.2402,0.2399,0.2404,0.2518,0.2519,0.2519,0.2486,0,0,0,0,0,0,0.1987,0.2004,0.2017,0.2079,0.2099,0.2168,0.2183,0.2194,0.2222,0.2225,0.2288,0.2298,0.2333,0.2385,0.2397,0.2408,0.2407,0.2517,0.2518,0.2519,0.2487,0.2486,0.2485,0,0,0,0,0,0.1981,0.2004,0.2017,0.2032,0.2116,0.2168,0.218,0.2219,0.2222,0.2236,0.2275,0.2296,0.2398,0.239,0.2404,0.2416,0.2517,0.2518,0.2519,0.2487,0.2486,0.2485,0,0,0,0,0,0,0.1943,0.2013,0.2028,0.2073,0.2114,0.2176,0.2195,0.2216,0.2258,0.226,0.2307,0.2321,0.2364,0.2395,0.2384,0.2453,0.246,0.2463,0.2431,0.243,0.2429,0.2421,0.2411,0,0,0,0,0,0.194,0.1976,0.2035,0.2069,0.2088,0.2138,0.2162,0.2188,0.2234,0.2252,0.2294,0.2338,0.238,0.2407,0.2449,0.2491,0.2506,0.2507,0.2505,0.2504,0.2507,0.2532,0.2533,0.2522,0.2522,0.2522,0,0,0.1934,0.1976,0.1996,0.2062,0.2097,0.2134,0.2152,0.2191,0.2219,0.2258,0.2305,0.2337,0.2389,0.2434,0.2456,0.2461,0.2513,0.2505,0.2504,0.2508,0.2533,0.2534,0.2535,0.2523,0.2523,0.2523,0,0,0.1941,0.1977,0.2008,0.2043,0.2095,0.2128,0.2135,0.2194,0.2216,0.2263,0.2294,0.2328,0.2399,0.2435,0.2462,0.2482,0.2504,0.2494,0.2489,0.2512,0.2513,0.2514,0.2521,0.2523,0.2497,0.2497,0.2497,0,0.1928,0.1983,0.2022,0.2058,0.2087,0.2122,0.2154,0.2186,0.225,0.2269,0.2273,0.2363,0.2401,0.2454,0.2458,0.248,0.249,0.2488,0.251,0.2511,0.2513,0.252,0.2522,0.2495,0.2495,0.2496,0.2496,0,0.1964,0.2002,0.2021,0.208,0.211,0.2144,0.2189,0.2215,0.2238,0.227,0.2318,0.2364,0.2415,0.243,0.2453,0.2486,0.2488,0.25,0.2509,0.2511,0.2519,0.2522,0.2493,0.2494,0.2494,0.2494,0,0,0.1952,0.2031,0.2037,0.2064,0.2124,0.2155,0.219,0.2239,0.2261,0.2303,0.2335,0.2393,0.2405,0.2436,0.2464,0.2484,0.2496,0.2494,0.2496,0.2493,0.2536,0.2526,0.2529,0.251,0.2511,0.2512,0.2531,0,0.1968,0.2033,0.2068,0.2118,0.2154,0.2187,0.2218,0.2259,0.2289,0.2325,0.2359,0.24,0.2412,0.2431,0.2452,0.249,0.2505,0.2489,0.2541,0.2542,0.2527,0.2533,0.2523,0.254,0.2534,0.2535,0.2535,0,0.1996,0.2036,0.2089,0.2144,0.216,0.2187,0.2235,0.2268,0.2314,0.2335,0.2369,0.2396,0.2435,0.2439,0.2494,0.2482,0.2506,0.2527,0.2529,0.2536,0.2539,0.254,0.2546,0.2548,0.254,0.254,0.254,0,0.1982,0.205,0.209,0.2112,0.2177,0.2195,0.2223,0.2269,0.2296,0.2338,0.2356,0.2402,0.2427,0.2462,0.2501,0.2501,0.2553,0.256,0.2572,0.2571,0.2582,0.2581,0.2592,0.2596,0.2596,0.2596,0.2596,0,0.1997,0.2028,0.2085,0.211,0.2145,0.2186,0.2221,0.2252,0.2292,0.2324,0.2356,0.2385,0.2434,0.247,0.2501,0.2542,0.2553,0.2571,0.2579,0.2569,0.2567,0.2586,0.2586,0.2596,0.2596,0.2596,0.2596,0,0.1988,0.2027,0.2073,0.213,0.2145,0.2169,0.2219,0.2244,0.2276,0.2316,0.2327,0.2377,0.2421,0.2463,0.2522,0.2542,0.2583,0.2593,0.2567,0.2571,0.2581,0.2579,0.2605,0.261,0.2609,0.2609,0.2609,0,0.1995,0.202,0.2079,0.2102,0.2129,0.2165,0.2193,0.2233,0.226,0.2314,0.2333,0.2379,0.2417,0.2485,0.2528,0.2572,0.2584,0.259,0.2591,0.258,0.2585,0.2583,0.2586,0.2589,0.2589,0.2589,0.2589,0,0.2004,0.2021,0.2059,0.2103,0.2134,0.2171,0.2209,0.2226,0.2274,0.2303,0.2347,0.2376,0.2435,0.248,0.253,0.2559,0.2582,0.2587,0.2593,0.2583,0.2567,0.2576,0.2565,0.2587,0.2587,0.2587,0.2587,0.2588,0.2004,0.2027,0.2071,0.2112,0.2144,0.2179,0.2205,0.2239,0.2276,0.2327,0.2349,0.2393,0.2438,0.2507,0.2536,0.2572,0.2577,0.2585,0.2587,0.2588,0.2586,0.256,0.2581,0.2581,0.2581,0.2581,0.2581,0,0.2014,0.2044,0.208,0.2132,0.2163,0.218,0.2223,0.2249,0.2287,0.2327,0.2363,0.2414,0.2457,0.2502,0.2548,0.2568,0.2579,0.2578,0.2578,0.2584,0.2578,0.2569,0.2568,0.2568,0.2568,0.2568,0.2568,0.2568,0.2023,0.2063,0.2086,0.2142,0.2172,0.2215,0.2238,0.227,0.2301,0.2356,0.2391,0.242,0.2462,0.2511,0.2551,0.2563,0.2579,0.2575,0.259,0.2584,0.2585,0.2586,0.2577,0.2578,0.2578,0.2593,0.2594,0.2594]},{"header":{"parameterUnit":"m.s-1","parameterCategory":1,"la1":30.2991,"la2":30.254,"lo1":-89.0895,"lo2":-89.0444,"dy":0.0017,"dx":0.0017,"nx":28,"ny":28,"refTime":"2024-02-01T09:00:00:Z","depth":0,"parameterNumber":3,"parameterNumberName":"V-component_of_WINDS"},"data":[0,0,0,0,0,0,0,0,0,0,0,0,0,0,0,0,0,0,0,0,0,0,0,0,0,0,0,0,0,0,0,0,0,0,0,0,0,0,0,0,0,0,0,0,0,0,0,0,0,0,0,0,0,0,0,0,0,0,1.6191,1.6191,0,1.617,1.6169,1.6169,1.6196,1.6197,1.6198,1.6199,1.6171,1.617,1.6168,0,0,0,0,0,0,0,0,0,0,0,0,0,1.6251,1.6249,1.6191,1.6191,1.6191,1.617,1.6169,1.6169,1.6196,1.6197,1.6198,1.6199,1.6172,1.617,1.6168,0,0,0,0,0,0,0,0,0,0,0,0,0,1.6226,1.6249,1.6191,1.6202,1.6202,1.617,1.6169,1.6169,1.6196,1.6197,1.6199,1.62,1.6172,1.617,1.6167,1.6122,0,0,1.616,1.6159,0,0,0,0,0,0,0,0,1.6228,1.6224,1.62,1.6201,1.6202,1.6187,1.618,1.6153,1.6195,1.6198,1.6199,1.6201,1.6175,1.6172,1.6165,1.612,1.6119,1.616,1.6158,1.6157,1.6156,0,0,0,0,0,0,0,1.6229,1.6225,1.6182,1.62,1.6201,1.6206,1.6204,1.6175,1.6178,1.6198,1.62,1.6197,1.6175,1.6167,1.6164,1.6119,1.616,1.6157,1.6156,1.6155,1.6035,1.6033,0,0,0,0,0,0,1.6231,1.6226,1.6183,1.6182,1.6219,1.6203,1.6201,1.619,1.6179,1.6178,1.6196,1.6198,1.6171,1.6167,1.6163,1.6108,1.6157,1.6155,1.6153,1.6036,1.6034,1.6032,0,0,0,0,0,0,1.6232,1.6226,1.6184,1.6205,1.62,1.6201,1.6188,1.6189,1.6181,1.6177,1.6177,1.6187,1.6172,1.6167,1.6132,1.6108,1.6153,1.6151,1.6038,1.6036,1.6033,1.5998,0,0,0,0,0,0,1.6233,1.6227,1.6211,1.6204,1.6199,1.6155,1.6187,1.6187,1.6177,1.618,1.6169,1.6168,1.6173,1.6136,1.613,1.6105,1.6149,1.604,1.6037,1.6034,1.6001,1.5995,1.5989,0,0,0,0,0,1.6235,1.62,1.621,1.6204,1.6179,1.6153,1.615,1.6157,1.6175,1.6158,1.6155,1.6169,1.6112,1.6132,1.6125,1.6099,1.6042,1.6038,1.6034,1.6004,1.5996,1.5989,0,0,0,0,0,0,1.6202,1.62,1.621,1.6172,1.6163,1.6158,1.6136,1.6148,1.6132,1.6135,1.6143,1.614,1.6103,1.6098,1.612,1.6054,1.6079,1.6074,1.6059,1.6051,1.6045,1.6046,1.6147,0,0,0,0,0,1.6191,1.6172,1.617,1.6137,1.6132,1.6135,1.6124,1.6131,1.612,1.6116,1.6111,1.6099,1.6079,1.6065,1.6045,1.6001,1.5998,1.598,1.5974,1.5969,1.5963,1.5938,1.593,1.602,1.602,1.602,0,0,1.6166,1.6163,1.615,1.613,1.6124,1.6102,1.6131,1.6108,1.6091,1.6112,1.6079,1.6075,1.6062,1.6022,1.6004,1.6016,1.5938,1.5964,1.596,1.5957,1.5934,1.5925,1.5917,1.6017,1.6018,1.6018,0,0,1.6111,1.6107,1.6078,1.6072,1.6062,1.6064,1.6058,1.6051,1.6049,1.6017,1.6032,1.6011,1.5976,1.5966,1.5956,1.5897,1.5908,1.589,1.5857,1.5832,1.5825,1.5819,1.5797,1.5789,1.5886,1.5885,1.5885,0,1.6081,1.6051,1.6062,1.6037,1.6027,1.6047,1.6017,1.601,1.5993,1.5985,1.6,1.5956,1.5949,1.5906,1.5892,1.5884,1.5874,1.5891,1.5826,1.582,1.5814,1.5792,1.5784,1.5883,1.5884,1.5884,1.5884,0,1.6014,1.5993,1.5971,1.5957,1.5945,1.5918,1.5923,1.5909,1.5916,1.5916,1.5882,1.5874,1.5854,1.5844,1.5851,1.5802,1.581,1.5825,1.5851,1.5803,1.5783,1.5775,1.588,1.5881,1.5882,1.5882,0,0,1.5936,1.5929,1.592,1.5914,1.5905,1.5888,1.5861,1.5843,1.583,1.5818,1.5794,1.5764,1.5778,1.5767,1.5773,1.5751,1.5703,1.5769,1.5769,1.5756,1.5647,1.5635,1.5626,1.5711,1.571,1.5709,1.5648,0,1.5879,1.5835,1.5844,1.58,1.5779,1.5798,1.5774,1.5765,1.5765,1.5746,1.5745,1.5723,1.5744,1.5737,1.5717,1.5713,1.5681,1.5718,1.5687,1.5686,1.5689,1.5615,1.5602,1.5546,1.564,1.5639,1.5638,0,1.5808,1.5795,1.5749,1.5743,1.5735,1.5714,1.5697,1.568,1.5669,1.567,1.5658,1.5667,1.5639,1.5666,1.5625,1.565,1.5638,1.5634,1.5632,1.5628,1.5658,1.5608,1.5528,1.5519,1.5626,1.5627,1.5628,0,1.5754,1.5725,1.5694,1.5688,1.568,1.5665,1.566,1.5652,1.564,1.5625,1.5617,1.5598,1.5587,1.5571,1.5575,1.5594,1.5532,1.556,1.5531,1.553,1.5516,1.5516,1.5431,1.551,1.551,1.551,1.5511,0,1.5689,1.5659,1.5669,1.565,1.5617,1.5627,1.5594,1.5592,1.5584,1.5563,1.5577,1.5557,1.5563,1.5542,1.5544,1.551,1.5505,1.5503,1.5504,1.5501,1.5501,1.5492,1.5496,1.5508,1.5509,1.5509,1.5509,0,1.5622,1.5628,1.5595,1.5591,1.5589,1.5565,1.5561,1.5542,1.5543,1.5516,1.551,1.5511,1.5487,1.5489,1.5462,1.5464,1.542,1.5426,1.5424,1.5425,1.5395,1.5397,1.53,1.5287,1.5376,1.5375,1.5374,0,1.558,1.5558,1.5553,1.5541,1.5536,1.5516,1.5505,1.5513,1.55,1.5487,1.5468,1.5447,1.543,1.539,1.5387,1.5366,1.5371,1.5338,1.5368,1.5365,1.5369,1.5369,1.5367,1.5332,1.5331,1.533,1.5329,0,1.5504,1.5508,1.5492,1.5476,1.5463,1.5451,1.5439,1.5428,1.5436,1.542,1.5397,1.5384,1.5357,1.5334,1.5315,1.5308,1.5319,1.532,1.5312,1.5308,1.5308,1.5306,1.5407,1.5322,1.5323,1.5323,1.5324,1.5324,1.5447,1.5429,1.5422,1.5403,1.5396,1.5386,1.5368,1.5367,1.5349,1.5329,1.5334,1.5308,1.5297,1.5272,1.5263,1.5241,1.5253,1.5241,1.5238,1.5235,1.5231,1.5313,1.5238,1.5238,1.5238,1.5238,1.5239,0,1.5371,1.5368,1.5351,1.5336,1.5321,1.5335,1.5323,1.5309,1.5286,1.5276,1.526,1.5232,1.521,1.5206,1.5184,1.5168,1.5172,1.5161,1.5162,1.516,1.5222,1.5231,1.5158,1.5158,1.5158,1.5158,1.5158,1.5158,1.5329,1.5298,1.5301,1.5266,1.5263,1.5239,1.5231,1.522,1.5212,1.5182,1.5165,1.5163,1.5154,1.5132,1.5112,1.5111,1.5102,1.5089,1.509,1.5148,1.5156,1.5163,1.5172,1.5087,1.5087,1.5029,1.5029,1.5028]}]]